| time (UTC) | temp F | wind direction | speed knots | gust knots | rain 1hr in | rain 24hr in | rain mn in | humidity % | barometer mb |
| 20260506085842 | 83 | 164 | 0.9 | 0.9 | 0.00 | 0.00 | 0.00 | 997.7 | |
| 20260506081642 | 82 | 162 | 0.9 | 1.7 | 0.00 | 0.00 | 0.00 | 997.7 | |
| 20260506073443 | 78 | 163 | 0.9 | 0.9 | 0.00 | 0.00 | 0.00 | 997.7 | |
| 20260506061042 | 68 | 174 | 1.7 | 1.7 | 0.00 | 0.00 | 0.00 | 100 | 997.5 |
| 20260506044643 | 51 | 192 | 2.6 | 2.6 | 0.00 | 0.00 | 0.00 | 22 | 996.7 |
| 20260506040442 | 40 | 170 | 2.6 | 2.6 | 0.00 | 0.00 | 0.00 | 28 | 996.7 |
| 20260506032242 | 39 | 169 | 2.6 | 2.6 | 0.00 | 0.00 | 0.00 | 29 | 996.7 |
| 20260506024043 | 39 | 169 | 2.6 | 2.6 | 0.00 | 0.00 | 0.00 | 29 | 995.9 |
| 20260506015842 | 40 | 170 | 2.6 | 2.6 | 0.00 | 0.00 | 0.00 | 28 | 995.7 |
| 20260506011642 | 40 | 170 | 2.6 | 2.6 | 0.00 | 0.00 | 0.00 | 26 | 995.7 |
| 20260506003443 | 41 | 171 | 2.6 | 2.6 | 0.00 | 0.00 | 0.00 | 24 | 995.4 |
| 20260505235242 | 42 | 170 | 2.6 | 2.6 | 0.00 | 0.00 | 0.00 | 23 | 994.8 |
| 20260505231042 | 43 | 170 | 1.7 | 2.6 | 0.00 | 0.00 | 0.00 | 19 | 994.7 |
| 20260505222842 | 44 | 174 | 2.6 | 2.6 | 0.00 | 0.00 | 0.00 | 24 | 994.7 |
| 20260505214642 | 46 | 196 | 2.6 | 3.5 | 0.00 | 0.00 | 0.00 | 22 | 994.7 |
| 20260505210442 | 48 | 205 | 2.6 | 2.6 | 0.00 | 0.00 | 0.00 | 22 | 993.0 |
| 20260505202242 | 49 | 182 | 2.6 | 2.6 | 0.00 | 0.00 | 0.00 | 18 | 992.7 |
| 20260505194042 | 50 | 184 | 2.6 | 2.6 | 0.00 | 0.00 | 0.00 | 12 | 992.7 |
| 20260505185842 | 53 | 189 | 2.6 | 2.6 | 0.00 | 0.00 | 0.00 | 991.7 | |
| 20260505181642 | 56 | 190 | 2.6 | 3.5 | 0.00 | 0.00 | 0.00 | 991.7 | |
| 20260505173443 | 61 | 195 | 1.7 | 2.6 | 0.00 | 0.00 | 0.00 | 990.9 | |
| 20260505165242 | 75 | 183 | 1.7 | 1.7 | 0.00 | 0.00 | 0.00 | 990.7 | |
| 20260505161042 | 76 | 181 | 1.7 | 1.7 | 0.00 | 0.00 | 0.00 | 990.7 | |
| 20260505152842 | 75 | 176 | 0.9 | 1.7 | 0.00 | 0.00 | 0.00 | 990.7 | |
| 20260505140442 | 85 | 220 | 0.9 | 5.2 | 0.00 | 0.00 | 0.00 | 990.7 | |
| 20260505124043 | 78 | 160 | 0.9 | 1.7 | 0.00 | 0.00 | 0.00 | 990.7 | |
| 20260505115842 | 83 | 171 | 0.9 | 2.6 | 0.00 | 0.00 | 0.00 | 990.6 | |
| 20260505111642 | 79 | 184 | 1.7 | 5.2 | 0.00 | 0.00 | 0.00 | 990.4 | |
| 20260505095242 | 79 | 166 | 0.9 | 1.7 | 0.00 | 0.00 | 0.00 | 989.7 |